Location: Trondheim
(63.4170°N, 10.4170°E)
Time: 07:28:17
(UTC+01:00)

ISS - Visible Passes

Search period start: 19 March 2019 00:00
Search period end: 29 March 2019 00:00
Orbit: 406 x 411 km, 51.6° (Epoch: 19 March)

Date Brightness Start Highest point End Pass type
(mag) Time Alt. Az. Time Alt. Az. Time Alt. Az.
26 Mar -1.3 21:04:19 10° SSW 21:04:31 10° SSW 21:04:31 10° SSW visible
27 Mar -1.4 20:13:51 10° S 20:14:34 11° S 20:15:16 10° SSE visible
28 Mar -1.4 20:58:11 10° SSW 20:59:13 11° S 20:59:17 11° S visible
